Location: American Canyon
(38.1966°N, 122.1514°W)
Time: 17:25:46
(UTC+00:00)

Cosmos 2058 Rocket - Pass Details

Date: 29 October 2020
Orbit: 610 x 639 km, 82.5° (Epoch: 23 November)

Event Time Altitude Azimuth Distance (km) Brightness Sun altitude
Rises 13:51:16 0° 341° (NNW) 2,939 6.2 -8.6°
Reaches altitude 10° 13:53:43 10° 331° (NNW) 2,022 5.3 -8.2°
Maximum altitude 13:57:37 30° 270° (W) 1,134 3.9 -7.4°
Drops below altitude 10° 14:01:28 10° 209° (SSW) 1,994 5.5 -6.7°
Sets 14:03:53 0° 199° (SSW) 2,891 6.4 -6.2°
